EGJBEGJJ

Guest
Details From EGJB - Guernsey
To EGJJ - Jersey
Flight Number -
Tags Routegen Generated
Created
Modified
Stats Distance 24 nm / 45 km
Max Altitude 100 ft / 30 m
Waypoints 5
Social Downloads 8
Likes 0
Share VATSIM

Download

Looking for another format? Having issues loading an existing format? Contact us
Advertisement - Login to hide

Notes

Departing runway 8 EGJB. Arriving runway 8 EGJJ.

Route

EGJB +49.44_-002.48 +49.32_-002.40 +49.20_-002.32 EGJJ

ID Type Via Altitude Latitude Longitude Leg Dist Tot Dist Heading (true) Name
O EGJB APT - 0 ft / 0 m 49.43523˚ -2.59190˚ - 0 nm - -
+49.44_-002.48 LATLON - 100 ft / 30 m 49.43825˚ -2.48071˚ 4 nm 4 nm 88° / 88° -
+49.32_-002.40 LATLON - 100 ft / 30 m 49.31802˚ -2.39875˚ 7 nm 12 nm 156° / 156° -
+49.20_-002.32 LATLON - 100 ft / 30 m 49.19780˚ -2.31678˚ 7 nm 20 nm 156° / 156° -
O EGJJ APT - 0 ft / 0 m 49.20699˚ -2.20693˚ 4 nm 24 nm 83° / 83° -

Altitude Profile

Advertisement - Login to hide

EGJB

Details ICAO EGJB (GCI)
Name Guernsey
Region United Kingdom
Timezone Europe/Guernsey (UTC+0.0)
Stats Elevation 336 ft / 102 m (AMSL)
Location 49.434955° -2.601970°
Runways 1
Magnetic Variation 1.067° W

METAR

EGJB 140750Z 27022KT 9999 VCSH FEW015CB 06/03 Q0999 RESHRA

Decode

TAF

Not found

Departure Runways

ID Width Length Bearing (true) Bearing (mag) Surface Threshold Offset Overrun Length
09 148 ft / 45 m 4,753 ft / 1,449 m 87.56° 88.63° Asphalt 0 ft / 0 m 0 ft / 0 m
27 148 ft / 45 m 4,753 ft / 1,449 m 267.57° 268.64° Asphalt 0 ft / 0 m 272 ft / 83 m

EGJJ

Details ICAO EGJJ (JER)
Name Jersey
Region United Kingdom
Timezone Europe/Jersey (UTC+0.0)
Stats Elevation 277 ft / 84 m (AMSL)
Location 49.207964° -2.195294°
Runways 1
Magnetic Variation 0.903° W

METAR

EGJJ 140720Z 27022KT 9999 VCSH FEW021CB BKN046 07/04 Q1000 RETS RESHRA

Decode

TAF

Not found

Destination Runways

ID Width Length Bearing (true) Bearing (mag) Surface Threshold Offset Overrun Length
09 151 ft / 46 m 5,593 ft / 1,705 m 82.73° 83.63° Asphalt 200 ft / 61 m 0 ft / 0 m
27 151 ft / 46 m 5,593 ft / 1,705 m 262.74° 263.64° Asphalt 302 ft / 92 m 0 ft / 0 m

Approach Navaids

Runway Type Ident Frequency Range Bearing (true) Bearing (mag) Slope Elevation
09 Localiser IJJ 110.90 MHz 18 nm / 33 km 82.59° 83.49° - 277 ft / 84 m (AMSL)
09 Glidescope IJJ 110.90 MHz 10 nm / 19 km 82.74° 83.64° 3.00° 277 ft / 84 m (AMSL)
09 DME IJJ 110.90 MHz 18 nm / 33 km - - - 287 ft / 87 m (AMSL)
27 Localiser IDD 110.30 MHz 18 nm / 33 km 262.70° 263.60° - 277 ft / 84 m (AMSL)
27 Glidescope IDD 110.30 MHz 10 nm / 19 km 262.74° 263.64° 3.00° 277 ft / 84 m (AMSL)
27 DME IDD 110.30 MHz 18 nm / 33 km - - - 289 ft / 88 m (AMSL)

Popular Alternatives